Location: Karcze
(52.0945°N, 22.4786°E)
Time: 02:56:43
(UTC+00:00)

Transit 2A Rocket - Pass Details

Date: 29 July 2021
Orbit: 586 x 917 km, 66.7° (Epoch: 27 September)

Event Time Altitude Azimuth Distance (km) Brightness Sun altitude
Rises 16:01:18 0° 272° (W) 2,943 9.7 19.9°
Reaches altitude 10° 16:04:00 10° 289° (WNW) 2,086 9.2 19.5°
Maximum altitude 16:07:36 21° 339° (NNW) 1,551 7.1 19.0°
Drops below altitude 10° 16:11:27 10° 28° (NNE) 2,249 7.3 18.4°
Sets 16:14:30 0° 44° (NE) 3,244 7.9 17.9°
